Homer, AK

4:20 AM AKDT on October 23, 2017 (GMT -0800)
Homer

Weather History for PAHO - March, 2014

Change the Weather History Date:

Monday, March 24, 2014

  Actual Average Record
Temperature  
Mean Temperature 31 °F -  
Max Temperature 41 °F 37 °F 51 °F (2015)
Min Temperature 21 °F 25 °F 4 °F (1962)
Degree Days  
Heating Degree Days 34    
Moisture  
Dew Point 17 °F    
Average Humidity 58    
Maximum Humidity 74    
Minimum Humidity 40    
Precipitation  
Precipitation 0.00 in - - ()
Sea Level Pressure  
Sea Level Pressure 30.17 in    
Wind  
Wind Speed 3 mph (WSW)    
Max Wind Speed 8 mph    
Max Gust Speed -    
Visibility 10 miles    
Events      
Averages and records for this station are not official NWS values.
T = Trace of Precipitation, MM = Missing Value Source: NWS Daily Summary

Daily Weather History Graph

Daily Weather History Graph

Search for Another Location

Airport or City:

Trip Planner

Search our weather history database for the weather conditions in past years. The results will help you decide how hot, cold, wet, or windy it might be!

Date:

Astronomy

Mar. 24, 2014 Rise Set
Actual Time 7:54 AM AKDT 8:30 PM AKDT
Civil Twilight 7:13 AM AKDT 9:12 PM AKDT
Nautical Twilight 6:23 AM AKDT 10:02 PM AKDT
Astronomical Twilight 5:27 AM AKDT 10:58 PM AKDT
Moon 4:56 AM AKDT (3/24) 12:46 PM AKDT (3/24)
Length of Visible Light 13h 58m
Length of Day
12h 35m
Last Quarter, 41% of the Moon is Illuminated
Mar 24
Last Quarter
Mar 30
New
Apr 7
First Quarter
Apr 14
Full
Apr 21
Last Quarter

Hourly Weather History & Observations

Time (AKDT) Temp. Windchill Dew Point Humidity Pressure Visibility Wind Dir Wind Speed Gust Speed Precip Events Conditions
12:53 AM 26.1 °F 21.9 °F 18.0 °F 71% 30.34 in 10.0 mi NNE 3.5 mph - N/A   Clear
1:53 AM 26.1 °F 20.5 °F 17.1 °F 69% 30.34 in 10.0 mi NE 4.6 mph - 0.00 in   Clear
2:53 AM 27.0 °F - 16.0 °F 63% 30.33 in 10.0 mi Calm Calm - N/A   Clear
3:53 AM 26.1 °F - 15.1 °F 63% 30.32 in 10.0 mi Calm Calm - N/A   Clear
4:53 AM 23.0 °F - 14.0 °F 68% 30.30 in 10.0 mi Calm Calm - N/A   Clear
5:53 AM 23.0 °F - 14.0 °F 68% 30.29 in 10.0 mi Calm Calm - N/A   Clear
6:53 AM 21.9 °F - 14.0 °F 72% 30.28 in 10.0 mi Calm Calm - N/A   Clear
7:53 AM 21.0 °F 16.2 °F 14.0 °F 74% 30.27 in 10.0 mi NNE 3.5 mph - N/A   Clear
8:53 AM 24.1 °F - 16.0 °F 71% 30.26 in 10.0 mi Calm Calm - N/A   Clear
9:53 AM 30.9 °F 26.2 °F 19.0 °F 61% 30.24 in 10.0 mi NE 4.6 mph - N/A   Clear
10:53 AM 34.0 °F - 16.0 °F 48% 30.23 in 10.0 mi Calm Calm - N/A   Clear
11:53 AM 35.1 °F 31.0 °F 18.0 °F 50% 30.22 in 10.0 mi SE 4.6 mph - N/A   Clear
12:53 PM 37.0 °F - 18.0 °F 46% 30.21 in 10.0 mi Calm Calm - N/A   Clear
1:53 PM 37.0 °F 31.0 °F 23.0 °F 57% 30.17 in 10.0 mi SSW 8.1 mph - N/A   Clear
2:53 PM 37.9 °F 34.4 °F 21.0 °F 51% 30.14 in 10.0 mi SW 4.6 mph - N/A   Clear
3:53 PM 37.9 °F 34.4 °F 19.9 °F 48% 30.12 in 10.0 mi SSW 4.6 mph - N/A   Clear
4:53 PM 39.9 °F 37.8 °F 17.1 °F 40% 30.08 in 10.0 mi SSW 3.5 mph - N/A   Clear
5:53 PM 41.0 °F 36.4 °F 18.0 °F 40% 30.05 in 10.0 mi WSW 6.9 mph - N/A   Clear
6:53 PM 39.9 °F 35.8 °F 19.0 °F 43% 30.03 in 10.0 mi West 5.8 mph - N/A   Clear
7:53 PM 39.0 °F 35.7 °F 19.9 °F 46% 29.99 in 10.0 mi West 4.6 mph - N/A   Clear
8:53 PM 33.1 °F 30.0 °F 15.1 °F 48% 29.99 in 10.0 mi NNE 3.5 mph - N/A   Clear
9:53 PM 30.0 °F - 17.1 °F 59% 29.98 in 10.0 mi Calm Calm - N/A   Clear
10:53 PM 28.0 °F - 16.0 °F 61% 29.96 in 10.0 mi Calm Calm - N/A   Clear
11:53 PM 27.0 °F - 17.1 °F 66% 29.95 in 10.0 mi Calm Calm - N/A   Clear